KX4BE Weather Reports


Display with metric or nautical units.
time (UTC)temp
F
wind
direction
speed
MPH
gust
MPH
rain 1hr
in
rain 24hr
in
rain mn
in
humidity
%
barometer
mb
20260902232340 93 44 1.0 4.0 0.00 0.00 0.00 55 1019.1
20260902231835 93 44 2.0 4.0 0.00 0.00 0.00 54 1019.2
20260902231336 93 90 1.0 3.0 0.00 0.00 0.00 55 1019.1
20260902230837 93 5 0.0 4.0 0.00 0.00 0.00 54 1019.1
20260902230331 94 5 2.0 5.0 0.00 0.00 0.00 54 1019.1
20260902225909 94 18 1.0 4.0 0.00 0.00 0.00 53 1019.2
20260902225346 95 18 2.0 4.0 0.00 0.00 0.00 53 1019.2
20260902224844 95 14 2.0 6.0 0.00 0.00 0.00 52 1019.1
20260902224403 95 105 3.0 6.0 0.00 0.00 0.00 51 1019.2
20260902223836 95 40 1.0 5.0 0.00 0.00 0.00 51 1019.2
20260902223332 95 40 2.0 4.0 0.00 0.00 0.00 50 1019.3
20260902222848 95 61 0.0 4.0 0.00 0.00 0.00 49 1019.3
20260902222347 95 38 1.0 4.0 0.00 0.00 0.00 50 1019.3
20260902221841 95 71 2.0 4.0 0.00 0.00 0.00 49 1019.3
20260902221401 95 76 2.0 4.0 0.00 0.00 0.00 49 1019.2
20260902220838 96 76 2.0 3.0 0.00 0.00 0.00 49 1019.3
20260902220334 96 49 1.0 4.0 0.00 0.00 0.00 49 1019.4
20260902215830 96 50 2.0 4.0 0.00 0.00 0.00 48 1019.4
20260902215348 96 61 2.0 3.0 0.00 0.00 0.00 48 1019.4
20260902214843 96 61 1.0 5.0 0.00 0.00 0.00 47 1019.5
20260902214343 96 62 3.0 5.0 0.00 0.00 0.00 48 1019.5
20260902213838 96 140 2.0 5.0 0.00 0.00 0.00 47 1019.4
20260902213338 96 11 3.0 5.0 0.00 0.00 0.00 48 1019.5
20260902212858 97 23 2.0 3.0 0.00 0.00 0.00 48 1019.4
20260902212336 97 46 1.0 9.0 0.00 0.00 0.00 48 1019.4
20260902211911 98 324 2.0 8.0 0.00 0.00 0.00 46 1019.4
20260902211346 99 58 5.0 8.0 0.00 0.00 0.00 45 1019.5
20260902210844 99 42 3.0 7.0 0.00 0.00 0.00 46 1019.6
20260902210340 99 26 2.0 7.0 0.00 0.00 0.00 46 1019.5
20260902205836 99 152 2.0 7.0 0.00 0.00 0.00 46 1019.5
20260902205335 99 126 1.0 5.0 0.00 0.00 0.00 46 1019.6
20260902204833 99 35 1.0 4.0 0.00 0.00 0.00 46 1019.5
20260902204331 99 340 1.0 4.0 0.00 0.00 0.00 46 1019.7
20260902203848 99 319 1.0 4.0 0.00 0.00 0.00 47 1019.6
20260902203344 99 18 2.0 3.0 0.00 0.00 0.00 46 1019.7
20260902202842 99 55 1.0 7.0 0.00 0.00 0.00 47 1019.8
20260902202341 98 59 3.0 7.0 0.00 0.00 0.00 47 1019.8
20260902201838 98 74 1.0 4.0 0.00 0.00 0.00 47 1019.9
20260902201358 98 5 2.0 8.0 0.00 0.00 0.00 47 1020.0
20260902200853 99 9 2.0 8.0 0.00 0.00 0.00 46 1020.0
20260902200332 99 69 2.0 10.0 0.00 0.00 0.00 46 1020.0
20260902195829 99 131 6.0 10.0 0.00 0.00 0.00 46 1020.1
20260902195349 100 84 3.0 6.0 0.00 0.00 0.00 47 1020.1
20260902194844 100 145 2.0 9.0 0.00 0.00 0.00 46 1020.1
20260902194344 99 117 3.0 9.0 0.00 0.00 0.00 47 1020.2
20260902193839 99 191 3.0 7.0 0.00 0.00 0.00 48 1020.2
20260902193353 99 135 3.0 7.0 0.00 0.00 0.00 48 1020.3
20260902192909 99 118 2.0 7.0 0.00 0.00 0.00 49 1020.5
20260902192407 98 78 2.0 5.0 0.00 0.00 0.00 50 1020.5
20260902191843 97 123 3.0 5.0 0.00 0.00 0.00 50 1020.5
20260902191342 98 5 2.0 10.0 0.00 0.00 0.00 49 1020.6
20260902190839 98 341 5.0 10.0 0.00 0.00 0.00 49 1020.7
20260902190333 98 72 2.0 8.0 0.00 0.00 0.00 49 1020.6
20260902185848 99 54 4.0 8.0 0.00 0.00 0.00 48 1020.7
20260902185345 99 49 4.0 7.0 0.00 0.00 0.00 47 1020.9
20260902184843 99 75 2.0 10.0 0.00 0.00 0.00 48 1020.9
20260902184342 98 132 4.0 10.0 0.00 0.00 0.00 48 1021.0
20260902183840 98 124 4.0 9.0 0.00 0.00 0.00 49 1020.9
20260902183335 97 145 2.0 6.0 0.00 0.00 0.00 50 1020.9
20260902182830 97 127 3.0 5.0 0.00 0.00 0.00 52 1021.0
20260902182332 97 45 2.0 5.0 0.00 0.00 0.00 52 1021.0
20260902181830 97 85 1.0 8.0 0.00 0.00 0.00 54 1021.1
20260902181349 97 28 2.0 10.0 0.00 0.00 0.00 54 1021.1
20260902180844 97 52 5.0 10.0 0.00 0.00 0.00 54 1021.2
20260902180340 97 144 4.0 9.0 0.00 0.00 0.00 54 1021.2
20260902175836 96 71 4.0 8.0 0.00 0.00 0.00 54 1021.2
20260902175332 95 137 4.0 8.0 0.00 0.00 0.00 55 1021.4
20260902174848 95 5 2.0 6.0 0.00 0.00 0.00 57 1021.5
20260902174347 95 199 1.0 5.0 0.00 0.00 0.00 57 1021.7
20260902173844 95 30 2.0 5.0 0.00 0.00 0.00 56 1021.8
20260902173339 95 78 2.0 6.0 0.00 0.00 0.00 56 1021.9
20260902172836 95 176 1.0 6.0 0.00 0.00 0.00 58 1021.9
20260902172336 95 83 2.0 9.0 0.00 0.00 0.00 57 1022.0
20260902171852 95 38 4.0 9.0 0.00 0.00 0.00 57 1022.1
20260902171330 95 101 5.0 9.0 0.00 0.00 0.00 57 1022.1
20260902170909 95 72 3.0 9.0 0.00 0.00 0.00 57 1022.2
20260902170403 95 82 2.0 9.0 0.00 0.00 0.00 58 1022.3
20260902165840 95 126 4.0 8.0 0.00 0.00 0.00 59 1022.3
20260902165339 95 71 4.0 8.0 0.00 0.00 0.00 58 1022.4
20260902164837 95 311 3.0 8.0 0.00 0.00 0.00 59 1022.5
20260902164336 94 66 3.0 8.0 0.00 0.00 0.00 58 1022.5
20260902163910 94 34 3.0 8.0 0.00 0.00 0.00 61 1022.6
20260902163404 94 141 3.0 6.0 0.00 0.00 0.00 61 1022.6
20260902162841 93 320 3.0 9.0 0.00 0.00 0.00 61 1022.6
20260902162339 94 35 5.0 9.0 0.00 0.00 0.00 60 1022.7
20260902161857 94 78 3.0 7.0 0.00 0.00 0.00 61 1022.7
20260902161352 94 103 4.0 7.0 0.00 0.00 0.00 61 1022.7
20260902160845 93 92 3.0 6.0 0.00 0.00 0.00 61 1023.0
20260902160340 93 36 1.0 8.0 0.00 0.00 0.00 63 1022.9
20260902155836 93 74 2.0 8.0 0.00 0.00 0.00 63 1022.9
20260902155355 93 67 3.0 5.0 0.00 0.00 0.00 63 1023.0
20260902154851 92 82 1.0 4.0 0.00 0.00 0.00 63 1023.0
20260902154349 92 37 1.0 3.0 0.00 0.00 0.00 65 1023.0
20260902153845 91 326 1.0 3.0 0.00 0.00 0.00 66 1023.1
20260902153341 91 54 0.0 4.0 0.00 0.00 0.00 67 1023.0
20260902152859 92 54 2.0 6.0 0.00 0.00 0.00 65 1023.1
20260902152337 91 36 2.0 6.0 0.00 0.00 0.00 65 1023.3
20260902151832 91 90 2.0 5.0 0.00 0.00 0.00 66 1023.1
20260902151331 91 88 3.0 5.0 0.00 0.00 0.00 67 1023.2
20260902150847 90 117 1.0 4.0 0.00 0.00 0.00 68 1023.1
20260902150402 90 168 3.0 6.0 0.00 0.00 0.00 68 1023.1
20260902145840 89 120 2.0 6.0 0.00 0.00 0.00 70 1023.2
20260902145340 89 157 2.0 7.0 0.00 0.00 0.00 70 1023.2
20260902144840 88 150 4.0 7.0 0.00 0.00 0.00 72 1023.3
20260902144340 88 162 4.0 5.0 0.00 0.00 0.00 72 1023.2
20260902143835 87 93 2.0 4.0 0.00 0.00 0.00 71 1023.2
20260902143329 87 134 2.0 5.0 0.00 0.00 0.00 72 1023.0
20260902142847 87 196 2.0 5.0 0.00 0.00 0.00 72 1023.0
20260902142346 87 90 2.0 4.0 0.00 0.00 0.00 72 1023.1
20260902141843 87 71 1.0 5.0 0.00 0.00 0.00 72 1023.1
20260902141342 86 71 3.0 5.0 0.00 0.00 0.00 74 1023.0
20260902140838 87 314 2.0 3.0 0.00 0.00 0.00 73 1023.0
20260902140333 86 67 2.0 4.0 0.00 0.00 0.00 75 1023.1
20260902135848 86 82 2.0 4.0 0.00 0.00 0.00 75 1023.0
20260902135348 85 84 3.0 4.0 0.00 0.00 0.00 76 1023.0
20260902134905 85 25 1.0 3.0 0.00 0.00 0.00 77 1023.1
20260902134343 85 103 0.0 3.0 0.00 0.00 0.00 77 1023.0
20260902133843 85 103 1.0 3.0 0.00 0.00 0.00 77 1023.0
20260902133338 85 103 2.0 3.0 0.00 0.00 0.00 76 1023.1
20260902132837 84 39 2.0 3.0 0.00 0.00 0.00 78 1023.1
20260902132337 84 38 0.0 0.0 0.00 0.00 0.00 79 1023.1
20260902131831 83 38 0.0 0.0 0.00 0.00 0.00 80 1023.1
20260902131330 83 38 0.0 0.0 0.00 0.00 0.00 80 1023.0
20260902130848 82 38 0.0 0.0 0.00 0.00 0.00 81 1022.8
20260902130344 82 38 0.0 0.0 0.00 0.00 0.00 81 1022.9
20260902125901 82 38 0.0 0.0 0.00 0.00 0.00 82 1022.8
20260902125356 81 38 0.0 0.0 0.00 0.00 0.00 82 1022.8
20260902124831 81 38 0.0 0.0 0.00 0.00 0.00 83 1022.7
20260902124349 80 38 0.0 0.0 0.00 0.00 0.00 84 1022.7
20260902123846 79 38 0.0 0.0 0.00 0.00 0.00 85 1022.8
20260902123342 78 38 0.0 0.0 0.00 0.00 0.00 87 1022.8
20260902122840 78 38 0.0 0.0 0.00 0.00 0.00 88 1022.7
20260902122339 77 38 0.0 0.0 0.00 0.00 0.00 89 1022.7
20260902121852 76 38 0.0 0.0 0.00 0.00 0.00 91 1022.6
20260902121331 76 38 0.0 0.0 0.00 0.00 0.00 92 1022.6
20260902120848 75 38 0.0 0.0 0.00 0.00 0.00 93 1022.5
20260902120343 74 38 0.0 0.0 0.00 0.00 0.00 94 1022.4
20260902115841 74 38 0.0 0.0 0.00 0.00 0.00 94 1022.4
20260902115344 74 38 0.0 0.0 0.00 0.00 0.00 94 1022.3
20260902114837 73 38 0.0 0.0 0.00 0.00 0.00 94 1022.2
20260902114336 73 38 0.0 0.0 0.00 0.00 0.00 94 1022.1
20260902113852 73 38 0.0 0.0 0.00 0.00 0.00 94 1022.0
20260902113346 73 38 0.0 0.0 0.00 0.00 0.00 94 1022.0
20260902112844 73 38 0.0 0.0 0.00 0.00 0.00 94 1021.9
20260902112343 73 38 0.0 0.0 0.00 0.00 0.00 94 1021.8
20260902111901 73 38 0.0 0.0 0.00 0.00 0.00 94 1021.9
20260902111336 73 38 0.0 0.0 0.00 0.00 0.00 93 1021.9
20260902110834 73 38 0.0 0.0 0.00 0.00 0.00 93 1021.8
20260902110330 73 38 0.0 0.0 0.00 0.00 0.00 93 1021.6
20260902105908 74 38 0.0 0.0 0.00 0.00 0.00 93 1021.7
20260902105345 74 38 0.0 0.0 0.00 0.00 0.00 93 1021.8
20260902104842 74 38 0.0 0.0 0.00 0.00 0.00 93 1021.7
20260902104342 74 38 0.0 0.0 0.00 0.00 0.00 93 1021.7
20260902103854 74 38 0.0 0.0 0.00 0.00 0.00 93 1021.8
20260902102834 74 38 0.0 0.0 0.00 0.00 0.00 93 1021.8
20260902102353 74 38 0.0 0.0 0.00 0.00 0.00 93 1021.7
20260902101909 74 38 0.0 0.0 0.00 0.00 0.00 93 1021.6
20260902101332 74 38 0.0 0.0 0.00 0.00 0.00 93 1021.6
20260902100904 74 38 0.0 0.0 0.00 0.00 0.00 93 1021.6
20260902100341 74 38 0.0 0.0 0.00 0.00 0.00 93 1021.5
20260902095836 74 38 0.0 0.0 0.00 0.00 0.00 92 1021.4
20260902095355 74 38 0.0 0.0 0.00 0.00 0.00 93 1021.5
20260902094851 74 38 0.0 0.0 0.00 0.00 0.00 93 1021.4
20260902094349 74 38 0.0 0.0 0.00 0.00 0.00 93 1021.4
20260902093843 74 38 0.0 0.0 0.00 0.00 0.00 93 1021.3
20260902093334 74 38 0.0 0.0 0.00 0.00 0.00 93 1021.4
20260902092851 74 38 0.0 0.0 0.00 0.00 0.00 93 1021.2
20260902092348 74 38 0.0 0.0 0.00 0.00 0.00 93 1021.2
20260902091845 74 38 0.0 0.0 0.00 0.00 0.00 93 1021.2
20260902091344 74 38 0.0 0.0 0.00 0.00 0.00 93 1021.2
20260902090900 74 38 0.0 0.0 0.00 0.00 0.00 93 1021.1
20260902090333 74 38 0.0 0.0 0.00 0.00 0.00 92 1021.2
20260902085911 74 38 0.0 0.0 0.00 0.00 0.00 92 1021.2
20260902085348 74 38 0.0 0.0 0.00 0.00 0.00 92 1021.1
20260902084845 74 38 0.0 0.0 0.00 0.00 0.00 92 1021.1
20260902084343 74 38 0.0 0.0 0.00 0.00 0.00 92 1021.0
20260902083840 75 38 0.0 0.0 0.00 0.00 0.00 91 1020.8
20260902083336 75 38 0.0 0.0 0.00 0.00 0.00 91 1020.9
20260902082833 75 38 0.0 0.0 0.00 0.00 0.00 91 1020.8
20260902082330 75 38 0.0 0.0 0.00 0.00 0.00 91 1020.7
20260902081910 75 38 0.0 0.0 0.00 0.00 0.00 91 1020.8
20260902081332 75 38 0.0 0.0 0.00 0.00 0.00 91 1020.8
20260902080850 75 38 0.0 0.0 0.00 0.00 0.00 91 1020.7
20260902080345 75 38 0.0 0.0 0.00 0.00 0.00 91 1020.8
20260902075842 75 38 0.0 0.0 0.00 0.00 0.00 91 1020.8
20260902075342 75 38 0.0 0.0 0.00 0.00 0.00 91 1020.6
20260902074856 75 38 0.0 0.0 0.00 0.00 0.00 91 1020.6
20260902074335 75 38 0.0 0.0 0.00 0.00 0.00 91 1020.7
20260902073853 75 38 0.0 0.0 0.00 0.00 0.00 90 1020.6
20260902073348 75 38 0.0 0.0 0.00 0.00 0.00 90 1020.7
20260902072847 75 38 0.0 0.0 0.00 0.00 0.00 90 1020.6
20260902072347 75 38 0.0 0.0 0.00 0.00 0.00 90 1020.7
20260902071904 75 38 0.0 0.0 0.00 0.00 0.00 90 1020.8
20260902071342 75 38 0.0 0.0 0.00 0.00 0.00 90 1020.9
20260902070841 75 38 0.0 0.0 0.00 0.00 0.00 89 1020.8
20260902070337 75 38 0.0 0.0 0.00 0.00 0.00 89 1020.9
20260902065835 75 38 0.0 0.0 0.00 0.00 0.00 88 1020.9
20260902065335 75 38 0.0 0.0 0.00 0.00 0.00 88 1020.8
20260902064836 76 38 0.0 0.0 0.00 0.00 0.00 88 1020.8
20260902064334 76 38 0.0 0.0 0.00 0.00 0.00 88 1020.9
20260902063833 76 38 0.0 0.0 0.00 0.00 0.00 88 1020.8
20260902063349 76 38 0.0 0.0 0.00 0.00 0.00 88 1020.9
20260902062845 76 38 0.0 0.0 0.00 0.00 0.00 87 1020.9
20260902062344 76 38 0.0 0.0 0.00 0.00 0.00 87 1020.9
20260902061841 76 38 0.0 0.0 0.00 0.00 0.00 87 1021.0
20260902061339 76 38 0.0 0.0 0.00 0.00 0.00 87 1021.0
20260902060913 76 38 0.0 0.0 0.00 0.00 0.00 87 1020.9
20260902060408 76 38 0.0 0.0 0.00 0.00 0.00 87 1021.0
20260902055904 77 38 0.0 0.0 0.00 0.00 0.00 87 1021.0
20260902055342 77 38 0.0 0.0 0.00 0.00 0.00 86 1020.9
20260902054900 77 38 0.0 0.0 0.00 0.00 0.00 86 1021.0
20260902054338 77 38 0.0 0.0 0.00 0.00 0.00 85 1021.0
20260902053850 77 38 0.0 0.0 0.00 0.00 0.00 86 1021.0
20260902053345 77 38 0.0 0.0 0.00 0.00 0.00 85 1021.1
20260902052841 77 38 0.0 0.0 0.00 0.00 0.00 85 1021.1
20260902052340 78 38 0.0 0.0 0.00 0.00 0.00 85 1021.0
20260902051837 78 38 0.0 0.0 0.00 0.00 0.00 85 1020.9
20260902051336 78 38 0.0 0.0 0.00 0.00 0.00 85 1021.0
20260902050836 78 38 0.0 0.0 0.00 0.00 0.00 85 1021.0
20260902050330 78 38 0.0 0.0 0.00 0.00 0.00 85 1021.0
20260902045847 78 38 0.0 0.0 0.00 0.00 0.00 85 1021.0
20260902045344 78 38 0.0 0.0 0.00 0.00 0.00 84 1020.9
20260902044841 79 38 0.0 0.0 0.00 0.00 0.00 84 1021.0
20260902044340 79 38 0.0 0.0 0.00 0.00 0.00 84 1021.0
20260902043839 79 38 0.0 0.0 0.00 0.00 0.00 84 1021.1
20260902043335 79 38 0.0 0.0 0.00 0.00 0.00 83 1021.0
20260902042849 79 38 0.0 0.0 0.00 0.00 0.00 83 1021.0
20260902042408 79 38 0.0 0.0 0.00 0.00 0.00 84 1021.0
20260902041844 79 38 0.0 0.0 0.00 0.00 0.00 84 1020.6
20260902041402 80 38 0.0 0.0 0.00 0.00 0.00 84 1020.9
20260902040838 80 38 0.0 0.0 0.00 0.00 0.00 83 1021.1
20260902040334 80 38 0.0 0.0 0.00 0.00 0.00 83 1021.0
20260902035849 80 38 0.0 0.0 0.00 0.00 0.00 81 1021.0
20260902035347 80 38 0.0 0.0 0.00 0.00 0.00 81 1021.1
20260902034904 80 38 0.0 0.0 0.00 0.00 0.00 83 1021.2
20260902034343 81 38 0.0 0.0 0.00 0.00 0.00 83 1021.1
20260902033838 81 38 0.0 0.0 0.00 0.00 0.00 83 1021.1
20260902033354 81 38 0.0 0.0 0.00 0.00 0.00 82 1021.2
20260902032849 81 38 0.0 0.0 0.00 0.00 0.00 81 1021.2
20260902032329 81 38 0.0 0.0 0.00 0.00 0.00 80 1021.2
20260902031845 81 38 0.0 0.0 0.00 0.00 0.00 80 1021.2
20260902031344 81 38 0.0 0.0 0.00 0.00 0.00 80 1021.1
20260902030841 81 38 0.0 0.0 0.00 0.00 0.00 81 1021.1
20260902030337 81 38 0.0 0.0 0.00 0.00 0.00 81 1021.2
20260902025833 82 38 0.0 0.0 0.00 0.00 0.00 80 1021.2
20260902025353 82 38 0.0 0.0 0.00 0.00 0.00 79 1021.2
20260902024848 82 38 0.0 0.0 0.00 0.00 0.00 78 1021.2
20260902024348 82 38 0.0 0.0 0.00 0.00 0.00 78 1021.2
20260902023904 83 38 0.0 0.0 0.00 0.00 0.00 78 1021.2
20260902023349 83 38 0.0 0.0 0.00 0.00 0.00 78 1021.2
20260902022846 83 38 0.0 0.0 0.00 0.00 0.00 77 1021.2
20260902022345 83 38 0.0 0.0 0.00 0.00 0.00 75 1021.2
20260902021859 83 38 0.0 0.0 0.00 0.00 0.00 75 1021.1
20260902021337 83 38 0.0 0.0 0.00 0.00 0.00 75 1021.1
20260902020834 83 38 0.0 0.0 0.00 0.00 0.00 74 1021.0
20260902020350 83 38 0.0 0.0 0.00 0.00 0.00 74 1020.9
20260902015846 83 38 0.0 0.0 0.00 0.00 0.00 74 1020.9
20260902015345 83 38 0.0 0.0 0.00 0.00 0.00 74 1021.0
20260902014840 83 38 0.0 0.0 0.00 0.00 0.00 74 1020.9
20260902014340 84 38 0.0 0.0 0.00 0.00 0.00 74 1020.9
20260902013839 84 38 0.0 0.0 0.00 0.00 0.00 75 1020.8
20260902013334 84 38 0.0 0.0 0.00 0.00 0.00 74 1020.7
20260902012830 84 38 0.0 0.0 0.00 0.00 0.00 75 1020.6
20260902012349 85 38 0.0 0.0 0.00 0.00 0.00 75 1020.6
20260902011844 85 38 0.0 0.0 0.00 0.00 0.00 71 1020.5
20260902011342 85 38 0.0 0.0 0.00 0.00 0.00 71 1020.6
20260902010840 85 38 0.0 0.0 0.00 0.00 0.00 71 1020.6
20260902010336 85 38 0.0 0.0 0.00 0.00 0.00 70 1020.6
20260902005832 85 38 0.0 0.0 0.00 0.00 0.00 69 1020.3
20260902005330 86 38 0.0 0.0 0.00 0.00 0.00 69 1020.4
20260902004848 86 38 0.0 1.0 0.00 0.00 0.00 69 1020.3
20260902004347 86 38 0.0 1.0 0.00 0.00 0.00 68 1020.4
20260902003844 86 38 0.0 1.0 0.00 0.00 0.00 68 1020.4
20260902003340 86 38 0.0 2.0 0.00 0.00 0.00 68 1020.4
20260902002838 87 38 1.0 2.0 0.00 0.00 0.00 67 1020.3
20260902002341 87 38 0.0 0.0 0.00 0.00 0.00 67 1020.3
20260902001838 87 38 0.0 0.0 0.00 0.00 0.00 66 1020.2
20260902001338 87 38 0.0 1.0 0.00 0.00 0.00 66 1020.2
20260902000853 88 38 0.0 1.0 0.00 0.00 0.00 65 1020.4
20260902000348 88 38 0.0 1.0 0.00 0.00 0.00 65 1020.3
20260901235843 88 38 0.0 1.0 0.00 0.00 0.00 65 1020.2
20260901235341 89 38 0.0 1.0 0.00 0.00 0.00 65 1020.3
20260901234838 89 38 0.0 1.0 0.00 0.00 0.00 64 1020.2
20260901234338 89 38 0.0 1.0 0.00 0.00 0.00 63 1020.4
20260901233915 90 38 0.0 1.0 0.00 0.00 0.00 63 1020.5
20260901233408 90 38 0.0 1.0 0.00 0.00 0.00 63 1020.4
20260901232843 90 38 0.0 1.0 0.00 0.00 0.00 62 1020.5